Theta_e
345 345 347 346 344 343 343 343 344 345 346 346 346 345 345 346 346 347 347 347 347 345 343 342 342 340 340 337 335 334 332 332
346 344 344 343 342 343 342 341 341 343 344 343 342 342 343 344 344 345 346 346 345 343 342 341 341 339 336 335 335 337 331 330
341 345 347 345 344 344 343 342 341 341 343 342 338 342 342 344 342 342 344 344 343 342 341 339 338 337 335 335 335 335 332 335
313 319 344 346 349 343 340 341 339 339 341 340 340 341 341 344 342 340 343 342 342 341 340 338 337 336 335 335 335 335 336 338
309 313 315 334 341 341 342 342 340 340 339 340 340 342 340 340 337 338 338 340 339 339 338 338 335 335 335 334 335 333 335 332
316 316 316 318 321 334 339 338 341 339 340 340 339 338 337 336 336 337 336 337 336 336 335 335 335 336 337 335 335 330 332 330
312 314 314 316 317 319 322 333 337 340 340 341 341 338 336 336 336 337 336 336 335 334 334 335 334 335 336 335 336 334 333 329
308 310 311 313 314 317 318 320 323 338 338 340 340 339 337 336 335 337 336 336 334 334 333 332 333 334 334 335 335 335 334 334
305 306 307 307 309 311 313 316 320 325 338 338 342 341 338 339 337 335 335 335 335 334 334 332 332 334 334 334 335 335 333 333
304 305 304 305 306 308 310 311 315 320 327 339 339 343 340 337 338 336 334 333 334 335 335 332 331 331 331 331 332 334 333 332
301 302 301 302 303 304 306 308 311 316 318 326 340 340 343 340 339 337 334 333 333 333 332 332 329 328 329 328 330 331 332 334
300 300 299 299 300 300 301 303 306 311 315 317 325 339 341 341 340 336 335 332 331 331 330 330 330 329 331 327 327 329 330 330
299 298 297 296 296 295 296 297 300 304 307 313 318 331 339 340 339 338 335 332 331 331 329 329 327 328 324 323 323 325 327 327
297 296 295 294 295 295 296 297 299 301 305 309 314 320 335 337 337 338 335 332 330 330 330 326 327 328 321 318 317 317 321 326
295 295 294 294 295 296 296 297 298 299 303 309 314 316 327 335 336 337 336 333 331 331 330 329 327 328 326 319 311 310 314 320
294 294 293 294 295 294 294 294 294 297 301 304 308 313 317 331 335 336 336 334 331 332 332 330 329 326 325 325 320 318 313 314
292 293 293 293 293 294 293 293 295 298 300 302 307 312 316 320 332 332 333 335 332 333 331 330 330 328 326 324 320 320 320 316
291 292 291 292 293 293 293 294 294 296 299 301 304 310 314 313 330 329 322 332 332 332 332 330 329 329 328 326 323 320 320 317
290 291 290 291 292 293 294 294 297 298 300 304 306 310 312 315 325 325 317 326 332 333 332 330 329 328 328 326 327 324 323 321
290 290 290 290 291 292 293 295 297 299 302 304 310 312 313 320 324 324 318 318 321 332 332 331 330 329 328 327 327 327 326 322
Wind_Speed
5 6 7 4 3 5 6 6 6 6 6 6 6 7 8 9 8 8 6 6 6 7 9 10 10 7 9 10 11 10 6 5
7 6 6 6 4 3 5 6 7 7 6 6 7 7 7 7 8 7 9 8 7 8 8 9 9 8 8 9 12 10 5 0
4 6 7 7 6 6 6 5 5 6 7 8 6 4 6 7 7 8 9 9 9 8 9 9 8 8 6 7 9 3 5 1
9 14 2 5 6 6 5 4 3 3 4 6 5 6 6 8 9 10 10 10 10 9 9 8 8 4 4 4 3 4 6 4
9 9 9 8 5 2 4 4 4 4 7 6 6 6 5 5 3 4 4 7 4 5 5 5 5 4 5 5 5 5 5 5
21 17 15 15 10 8 5 3 5 5 6 7 5 4 5 4 4 6 6 5 6 5 4 6 6 6 7 8 8 8 7 5
19 19 18 15 12 7 7 9 5 7 7 8 6 5 5 5 5 6 7 6 7 7 6 6 7 6 6 8 8 9 10 7
16 18 18 18 15 14 9 9 11 6 6 7 9 6 5 5 5 6 7 8 7 7 8 7 6 5 6 6 8 9 8 10
17 17 16 16 18 16 12 11 11 10 8 7 11 8 7 9 7 6 7 8 10 8 7 5 5 4 6 5 5 8 7 9
16 15 18 17 16 13 13 13 11 11 9 8 10 13 11 7 8 9 7 7 8 9 9 7 6 5 4 5 5 8 8 9
15 14 14 16 15 12 13 17 13 11 10 8 14 14 15 12 8 10 10 7 6 9 8 11 7 5 4 4 5 7 9 6
14 14 18 19 12 11 10 11 13 12 12 11 13 13 16 15 13 11 13 9 7 8 11 8 10 9 6 3 4 4 5 6
16 17 17 16 13 13 13 14 13 15 14 18 17 13 18 18 16 14 12 14 11 12 7 13 5 8 6 3 3 2 5 5
17 17 17 15 12 13 13 12 14 14 15 19 18 19 17 21 19 17 15 13 12 13 13 5 6 10 6 5 4 0 1 4
16 17 17 16 17 13 14 14 14 13 13 14 15 18 21 20 23 19 16 14 14 16 16 18 11 9 14 7 5 5 4 3
16 16 17 15 18 15 18 16 18 15 15 16 17 22 21 18 21 22 19 15 17 17 15 15 14 14 9 7 5 7 5 4
14 15 16 18 18 17 15 18 15 14 15 22 21 18 21 20 18 18 24 15 18 18 17 16 15 13 12 11 4 3 4 5
16 17 20 20 19 18 18 20 20 17 17 18 16 14 14 17 16 14 15 21 19 17 19 19 17 15 12 12 11 8 7 4
16 18 22 21 20 18 19 21 21 22 21 16 18 15 12 14 15 13 16 16 14 16 16 19 17 15 17 13 12 11 4 4
16 19 21 22 21 22 19 19 13 15 18 17 18 15 11 13 13 16 15 23 26 17 13 15 17 15 17 15 11 11 7 4
Wind_Direction
149 136 131 127 142 151 156 158 166 173 174 173 180 175 172 175 181 180 196 179 171 164 173 173 182 181 175 159 125 140 144 160
155 151 146 153 159 192 184 173 175 177 175 172 167 173 174 182 182 187 183 180 184 176 182 179 179 176 187 165 147 140 128 42
46 170 167 166 175 183 199 214 201 190 187 180 166 177 189 187 196 197 184 181 181 190 184 188 177 169 200 164 138 142 146 164
28 21 257 183 183 164 170 196 223 240 216 197 188 193 193 193 198 197 185 183 178 188 193 182 171 154 176 175 136 156 133 130
22 13 20 12 339 195 183 189 189 209 231 213 207 198 203 202 191 186 168 176 170 174 174 187 196 172 181 161 160 131 117 110
14 17 22 12 4 354 292 232 196 200 210 216 217 219 200 185 179 180 182 170 177 177 183 190 195 204 187 169 163 147 145 166
10 4 7 1 360 346 337 315 269 214 203 208 200 216 218 177 191 178 191 172 187 181 190 193 197 202 190 167 158 158 151 169
5 3 1 352 352 348 335 325 312 265 213 201 208 203 209 203 197 201 198 187 183 183 187 190 195 174 192 182 158 151 154 161
8 359 356 356 342 337 331 323 321 306 270 223 196 204 213 211 209 215 202 198 190 186 185 164 175 174 186 181 157 144 153 163
359 359 353 346 341 333 324 317 308 300 289 265 225 204 206 214 214 215 202 199 195 189 170 164 178 174 175 186 164 151 168 162
355 351 347 337 328 322 317 314 307 298 282 263 246 226 205 211 226 222 199 197 187 180 173 164 164 173 185 167 181 158 162 158
350 348 344 339 329 324 314 302 301 299 298 270 255 238 220 208 219 224 205 192 185 185 172 179 162 166 172 157 141 163 151 162
353 344 344 336 330 328 322 312 304 297 294 289 283 244 234 216 215 220 209 195 190 188 166 170 166 155 119 94 76 91 147 163
345 340 339 329 320 317 304 297 294 287 284 282 273 274 235 231 221 214 209 201 179 184 178 162 162 168 150 127 153 257 256 174
341 334 333 323 313 312 306 294 289 292 286 284 272 259 247 227 228 220 211 203 195 186 185 178 180 182 159 153 145 204 135 202
339 328 322 318 317 307 300 293 294 291 284 281 276 277 270 232 225 224 216 209 200 189 189 185 178 186 179 196 161 146 166 165
331 318 323 323 317 307 300 294 288 290 285 283 272 269 269 259 229 227 236 211 205 192 184 192 187 185 190 188 181 149 152 143
335 327 330 324 315 310 302 297 296 291 283 282 270 271 269 255 232 217 197 256 209 192 185 188 188 191 190 185 202 184 188 153
332 329 327 323 316 319 315 303 294 293 285 272 272 263 248 251 215 190 206 217 205 196 187 189 192 193 191 183 192 209 160 158
331 330 323 321 323 326 317 307 303 293 287 279 272 243 230 239 195 217 174 180 236 218 190 195 187 196 196 186 183 199 203 170